Regional Weather Roundup
Issued by NWS Newport/Morehead, NC

Current Version | Previous Version | Text Only | Print | Product List | Glossary Off
Versions: 1 2 3 4 5 6 7 8 9 10 11 12 13 14 15 16 17 18 19 20 21 22 23 24 25 26 27 28 29 30 31 32 33 34 35 36 37 38 39 40 41 42 43 44 45 46 47 48 49 50

000
ASUS42 KMHX 061725
RWRMHX
WEATHER ROUNDUP FOR EASTERN NORTH CAROLINA
NATIONAL WEATHER SERVICE NEWPORT/MOREHEAD CITY NC
100 PM EDT WED MAY 06 2015

NOTE: "FAIR" INDICATES FEW OR NO CLOUDS BELOW 12,000 FEET
WITH NO SIGNIFICANT WEATHER AND/OR OBSTRUCTIONS TO VISIBILITY

NCZ015>017-031-032-045>047-102-103-061800-
NORTH COAST

CITY           SKY/WX    TMP DP  RH WIND       PRES   REMARKS
EDENTON        PTSUNNY   75  57  53 SE7       30.22F
ELIZABETH CITY PTSUNNY   74  57  55 E7        30.23F
KITTY HAWK     PTSUNNY   72  55  54 SE8       30.23F
MANTEO         PTSUNNY   71  58  64 SW7       30.24F

$$

NCZ045>047-081-094-103-104-061800-
CENTRAL COAST

CITY           SKY/WX    TMP DP  RH WIND       PRES   REMARKS
FRISCO         CLOUDY    73  56  54 SE7       30.23F
SWANQUARTER      N/A     75 N/A N/A SE8       30.18F

$$

NCZ095-097-098-100-101-061800-
SOUTHERN COAST

CITY           SKY/WX    TMP DP  RH WIND       PRES   REMARKS
BEAUFORT       CLOUDY    73  58  59 E9        30.21F
CEDAR ISLAND     N/A     72 N/A N/A NE8       30.27S
JACKSONVILLE   CLOUDY    75  50  41 E8        30.20F
PINEY ISLAND   CLOUDY   N/A N/A N/A NE10      30.22F
WILMINGTON     CLOUDY    75  56  51 E12       30.19F


$$

NCZ011>013-027>030-043-044-078>080-089-090>093-098-061800-
COASTAL PLAIN

CITY           SKY/WX    TMP DP  RH WIND       PRES   REMARKS
AHOSKIE        MOSUNNY   76  55  47 SE7       30.22F
CLINTON        MOSUNNY   77  54  45 NE5       30.20F
ELIZABETHTOWN  PTSUNNY   77  51  39 E5        30.19F
GOLDSBORO      PTSUNNY   76  54  46 E9        30.19F
GREENVILLE     PTSUNNY   77  52  41 SE9       30.22F
HAVELOCK       CLOUDY    73  57  57 NE13      30.22F
KENANSVILLE    PTSUNNY   75  49  39 E3        30.21F
KINSTON        PTSUNNY   75  54  46 SE3       30.22F
NEW BERN       CLOUDY    75  54  47 E8        30.22F
RICHLANDS      CLOUDY    75  54  46 E7        30.20F
ROCKY MOUNT    PTSUNNY   78  54  43 SE3       30.21F
WASHINGTON     PTSUNNY   74  53  46 SE6       30.21F
WHITEVILLE     PTSUNNY   75  55  49 E6        30.19S

$$

AMZ130-135-150-152-154-156-158-170-250-252-270-ANZ085-086-088-633-658-670-061800-
MARINE OBSERVATIONS

STATION/POSITION TIME  TEMP    WIND        PRES    WAVE   SWELL
                       AIR SEA DIR/SP/G            HT/PER HT/PER
                 (UTC) (F)     (DEG/KT/KT) (MB)    (FT/S) (FT/S)
CHESAPEAKE LIGHT 1700   64     160/ 12/ 12 1024.5
64 E VA BEACH    1650   64 60  170/  2/  2 1023.9    2/ 8   2/ 8
DUCK             1600   70 53  100/  2/  3 1023.6
2 E DUCK         1611      61                N/A     2/11
OREGON INLET     1600   71 70   90/  6/  9 1024.4
13E OREGON INLT  1700      64                N/A     2/ 7
HATTERAS CG      1600   71 67   90/  6/  8 1023.7
DIAMOND BUOY     1650   71 74  100/ 12/ 14 1023.6    3/ 6   3/ 6
CAPE LOOKOUT     1700   69      40/ 13/ 14 1022.7
BEAUFORT LAB     1600   72 68   70/  6/ 12 1022.5
27 SE WRIGHTSVLE 1700   67 71   70/ 16/ 19   N/A
5 SE WRIGHTSVLE  1608   69 68   60/ 12/ 17 1022.7
225 S CAPE HAT   1650   67 70   80/ 25/ 31 1018.6    8/ 8   2/11
41 SE CHARLESTON 1650   73 73   60/ 19/ 23 1019.4    7/ 8   3/ 8

$$



USA.gov is the U.S. government's official web portal to all federal, state and local government web resources and services.